RH
94 88 77 38 41 77 82 85 94 66 76 92 91 63 35 24 26 27 28 29 34 40 38 37 34 35 41 36 40 52 56 65 78 48 37 34 37 67 88 99 90 81 80 68
84 74 57 53 44 56 74 72 47 33 71 89 74 36 36 36 32 35 34 36 39 39 41 43 38 36 33 33 38 50 45 63 77 38 38 55 63 53 59 81 95 98 95 78
79 74 56 44 47 70 69 79 83 46 56 53 61 51 41 43 38 41 37 47 49 47 46 41 44 46 42 38 42 45 48 64 62 73 60 58 62 46 42 68 97 94 84 92
78 70 63 51 49 72 77 71 83 60 84 67 55 48 45 52 52 42 40 48 52 52 59 51 50 52 52 45 43 49 59 73 65 66 61 57 59 58 47 48 59 94 83 93
80 63 54 43 60 76 66 67 71 54 50 45 52 56 40 43 37 44 50 49 43 42 48 49 60 59 56 60 47 54 69 76 65 52 51 53 60 60 51 44 41 49 61 84
79 48 43 43 70 69 60 66 63 59 56 49 60 47 41 42 39 36 37 40 43 45 53 44 41 41 45 52 57 63 67 79 89 65 58 64 70 68 53 41 53 72 84 94
70 46 47 58 78 62 64 67 64 62 71 53 51 40 39 44 40 41 33 31 41 45 38 35 36 45 49 49 53 50 78 79 85 87 74 98 60 80 67 91 98 98 98 95
50 48 47 82 77 67 62 64 61 61 91 55 40 41 41 33 34 35 34 47 44 41 42 74 81 73 56 54 60 58 54 67 95 97 89 61 52 95 97 95 99 97 98 87
55 55 66 77 79 65 63 65 65 71 72 70 50 45 37 56 56 64 55 44 50 48 91 93 96 88 68 69 67 69 68 63 92 93 95 97 96 84 92 100 97 100 90 85
62 59 60 63 72 62 62 65 63 54 55 57 52 69 62 52 62 71 61 53 53 53 94 96 98 96 73 91 94 87 90 95 91 92 93 86 96 96 100 96 98 90 90 91
64 61 62 54 64 64 62 65 65 59 69 66 56 53 53 57 61 87 58 71 70 87 93 96 97 97 90 94 98 95 91 94 93 92 96 95 92 82 94 99 99 92 95 97
61 60 60 58 57 74 62 56 64 62 52 68 54 51 54 56 55 55 56 64 82 78 90 89 93 95 95 91 96 92 96 98 98 96 97 99 98 99 98 99 99 99 98 97
71 58 55 48 48 79 68 71 56 48 67 66 63 60 47 38 41 44 62 77 73 69 68 83 96 99 88 97 98 91 76 96 98 96 96 95 98 98 98 97 99 98 96 98
83 76 55 44 46 85 82 73 74 70 77 80 72 64 63 59 59 57 53 64 67 65 65 67 96 96 72 96 99 94 85 82 94 96 96 98 98 98 97 98 98 99 100 97
90 62 63 74 73 70 77 81 83 76 76 88 69 63 60 58 51 59 64 64 65 65 68 89 91 75 88 97 90 93 92 95 97 100 94 97 98 98 98 97 97 100 100 100
84 62 73 68 65 65 61 58 67 78 74 74 91 61 61 56 61 65 66 64 66 63 70 78 74 62 73 99 98 97 96 95 100 100 98 98 100 97 98 96 96 96 96 97
76 67 72 66 56 55 73 89 97 88 81 72 85 82 61 60 61 62 65 69 76 70 70 84 75 63 73 98 96 98 86 95 96 97 93 98 98 95 96 96 93 94 99 100
84 78 65 59 56 92 92 94 94 91 77 96 96 91 70 63 62 66 71 80 88 82 67 76 85 70 80 97 99 94 93 96 97 98 98 90 94 96 97 90 86 88 96 98
85 69 65 63 58 71 87 92 82 78 80 88 92 94 91 73 72 69 86 83 98 72 95 88 82 96 99 92 97 91 96 99 97 98 98 97 95 94 98 91 88 83 93 91
81 68 46 81 67 82 75 86 99 99 99 97 81 83 90 74 77 82 83 86 95 96 90 77 94 98 100 98 96 98 97 98 98 98 98 96 96 88 95 94 95 91 92 95
70 44 93 99 98 100 99 95 93 97 89 95 92 82 86 76 89 94 75 94 96 96 93 91 98 95 96 99 92 91 96 96 97 97 96 97 95 88 90 97 96 94 90 90
48 68 99 97 98 96 87 93 93 99 86 81 82 75 67 62 69 78 86 90 96 94 92 94 98 98 100 97 96 97 95 93 93 95 95 97 96 94 88 88 88 88 86 88
87 98 100 95 97 97 96 100 94 93 66 64 65 83 61 69 69 84 98 98 94 90 100 97 97 99 99 96 93 94 94 94 94 94 93 92 90 90 85 81 83 84 84 84
65 97 99 92 100 96 93 92 90 78 79 67 64 77 71 85 88 97 90 86 98 100 98 97 98 100 99 94 92 89 91 89 88 88 89 87 81 80 80 80 82 80 69 44
94 98 98 100 86 82 90 89 77 82 96 76 73 82 77 94 88 93 90 98 97 96 96 98 100 98 93 94 94 87 87 86 86 86 85 82 81 79 78 72 46 31 28 28
93 99 96 90 82 94 88 83 84 81 85 90 90 85 89 88 97 98 96 97 96 95 100 100 96 96 95 91 89 85 83 84 82 82 81 80 75 53 40 39 40 42 46 48
98 86 87 96 73 96 69 82 82 80 89 92 81 91 84 94 98 93 98 89 97 100 100 94 89 90 91 89 85 84 83 82 81 80 66 52 64 72 66 61 58 64 78 76
Wind_Speed
11 7 5 9 11 15 13 6 2 7 10 3 4 2 3 9 5 11 6 4 6 5 4 4 3 4 5 6 1 2 3 3 4 4 11 13 9 5 3 3 5 4 4 9
7 5 9 11 11 14 9 7 4 8 8 2 1 2 5 8 4 7 4 4 5 5 3 3 3 4 5 10 4 2 1 3 4 10 4 6 5 7 9 9 8 4 3 5
6 6 10 12 12 10 5 3 2 4 7 3 4 4 3 4 9 5 5 5 7 5 4 5 3 5 6 15 7 2 1 3 4 4 9 9 14 15 10 5 4 8 9 12
8 7 9 10 12 7 4 1 1 1 2 3 5 3 4 7 3 3 4 4 4 4 3 5 4 5 5 7 3 4 3 2 1 6 11 14 16 15 15 13 13 8 10 16
8 8 10 10 11 6 4 2 2 2 4 6 6 4 2 6 8 3 2 4 2 5 3 2 2 0 1 4 1 2 4 3 3 14 12 14 16 16 17 15 15 15 17 11
10 10 11 10 10 8 3 3 3 2 3 3 4 2 4 6 4 6 11 5 3 4 1 4 11 14 12 10 7 5 5 3 2 8 6 12 11 9 15 13 7 9 10 3
11 11 12 11 8 7 10 7 5 3 1 3 3 10 12 9 5 4 2 4 3 1 8 16 16 17 18 16 16 16 5 6 4 4 7 4 1 16 10 11 8 3 10 5
12 13 14 13 11 10 10 9 5 3 2 2 9 9 6 8 6 3 3 6 5 8 7 4 5 4 4 4 7 10 14 6 3 2 3 11 8 7 5 2 6 7 8 3
12 13 15 12 10 9 9 8 7 5 7 5 1 7 7 3 1 3 6 9 9 7 3 3 2 2 3 4 8 10 5 10 6 2 3 3 3 12 14 3 3 7 5 4
12 12 12 12 9 6 5 6 6 10 9 11 7 5 4 3 4 3 3 4 7 8 2 2 1 3 4 4 6 3 3 4 7 5 4 3 12 20 17 3 3 8 10 14
13 13 12 11 10 6 5 8 7 9 6 9 10 11 10 8 6 3 2 3 6 4 4 2 2 1 3 3 3 7 2 3 3 4 1 2 24 7 6 4 11 11 15 13
14 14 12 11 11 7 7 9 8 12 7 7 6 4 5 4 5 5 3 3 2 2 3 1 1 2 3 4 3 6 4 5 2 5 3 5 11 11 12 12 13 12 14 10
14 13 11 9 11 8 9 14 12 11 10 10 8 6 6 4 2 5 5 4 3 3 1 4 2 1 1 2 3 3 7 12 2 2 4 9 15 13 14 13 14 14 13 14
13 13 10 11 13 11 10 10 10 9 6 4 3 7 3 3 4 6 5 6 4 1 2 2 2 1 2 1 2 2 4 9 5 3 6 8 13 13 10 12 14 15 15 15
15 14 14 12 11 11 9 9 8 8 5 3 1 3 3 5 3 5 3 2 4 1 1 2 2 3 0 1 2 2 6 3 3 1 7 7 6 6 10 12 13 12 14 14
15 16 14 11 9 8 6 3 3 3 4 2 1 1 1 9 8 6 6 5 3 2 1 3 4 5 1 2 2 2 2 5 7 2 9 12 10 10 11 13 13 12 13 12
17 14 12 9 8 8 6 4 3 5 2 2 3 4 2 7 11 8 6 10 5 3 2 3 3 4 4 2 2 7 3 0 1 2 9 7 2 7 12 13 11 10 12 12
16 14 11 9 10 12 11 11 10 8 1 4 2 3 1 4 4 3 5 6 7 4 3 3 4 3 4 2 10 10 8 6 5 6 6 12 11 11 13 9 7 8 10 10
16 13 11 10 7 5 6 6 6 3 2 2 0 2 3 5 3 3 4 4 1 4 2 4 3 1 1 4 15 11 7 5 8 9 11 14 15 13 15 8 5 5 8 7
18 14 4 4 7 5 7 3 2 2 1 2 3 4 2 5 5 2 2 3 2 1 5 4 2 2 6 8 9 8 6 7 10 12 12 13 11 10 10 7 6 5 6 7
15 5 3 9 12 5 2 2 1 1 2 5 6 10 2 5 3 3 5 2 2 2 2 3 2 3 4 11 10 7 6 5 7 11 9 9 7 8 8 8 7 6 5 5
8 8 14 14 4 2 3 3 1 3 3 6 5 7 12 3 4 2 0 2 2 3 3 2 1 1 16 14 12 9 6 6 8 7 8 10 8 6 5 5 6 5 6 7
12 4 5 4 4 3 4 4 3 0 3 5 5 2 7 4 4 2 1 2 3 4 1 2 1 12 15 13 11 9 6 6 7 8 8 7 7 6 5 9 10 9 8 8
2 3 4 3 2 3 4 3 3 1 1 8 11 4 2 2 3 1 1 3 2 2 3 2 2 16 17 14 11 9 8 6 7 8 8 8 9 12 13 12 12 9 8 7
1 3 3 4 2 3 4 2 3 3 2 4 6 4 1 0 1 2 2 2 3 2 1 2 14 19 17 14 11 7 7 7 9 11 12 13 13 12 12 11 9 7 5 5
2 3 1 1 5 3 2 3 3 3 7 4 4 2 2 3 3 2 3 2 1 2 3 13 20 18 16 13 9 8 9 11 14 15 15 14 13 11 9 8 7 5 5 3
3 1 3 1 2 1 5 6 5 5 6 1 2 3 6 3 0 1 0 2 3 9 13 16 15 15 13 11 11 13 14 15 15 16 14 13 12 10 8 7 5 5 5 6
Wind_Direction
143 141 179 165 150 145 142 123 101 161 152 149 228 227 19 108 95 66 63 57 61 65 63 72 94 85 49 37 77 55 346 273 287 271 288 277 277 346 32 278 327 298 260 269
157 169 198 172 157 161 154 140 140 162 184 168 184 53 80 57 43 37 47 71 49 45 69 82 62 61 63 50 63 138 350 349 334 324 338 18 62 358 341 306 252 225 259 287
166 160 162 164 166 162 164 167 91 161 213 246 138 114 80 104 44 44 36 78 57 60 54 51 1 33 15 17 6 125 137 194 193 244 278 290 298 303 300 299 287 319 286 301
158 159 166 175 160 154 141 155 182 156 212 345 85 100 125 120 99 62 46 31 78 78 44 353 30 23 350 357 27 40 87 242 180 282 280 282 276 281 276 260 265 258 302 305
151 159 168 169 158 139 109 110 106 109 92 109 81 36 63 156 107 102 62 109 59 60 86 89 271 349 228 231 319 88 359 213 348 297 290 273 270 281 258 259 262 265 279 261
160 153 156 157 158 163 123 111 99 69 32 83 88 189 112 105 97 68 62 60 92 46 145 287 280 262 234 228 231 206 184 177 123 270 292 311 279 246 229 242 287 274 246 121
157 148 145 143 139 145 130 101 96 80 57 96 152 103 96 98 82 106 24 53 91 126 337 318 295 276 257 246 243 219 191 162 180 286 311 255 31 26 47 57 36 13 79 89
154 148 144 137 129 136 132 106 113 89 75 342 103 102 102 79 85 138 93 49 51 348 6 6 336 335 345 272 227 228 203 169 228 226 227 297 305 36 25 317 58 15 56 63
153 149 150 142 127 140 143 119 109 112 114 338 92 105 107 116 78 48 53 33 41 45 76 57 14 306 282 312 322 23 173 191 173 192 271 272 337 334 335 190 111 12 50 2
152 155 155 155 143 130 161 132 119 110 101 35 87 87 115 103 85 93 45 8 23 31 63 62 266 280 326 337 321 331 80 126 206 215 237 281 355 329 321 157 80 58 68 42
156 156 154 158 154 134 162 118 113 120 95 67 82 88 91 89 79 114 332 63 10 32 52 55 276 21 302 295 246 327 43 271 186 207 177 271 360 357 41 42 78 81 78 85
154 152 152 155 160 138 136 126 118 110 99 122 116 110 109 115 122 132 65 116 121 122 81 8 7 340 330 305 358 347 40 350 25 28 72 38 34 45 50 65 83 90 98 104
154 152 157 167 159 136 122 111 119 122 99 91 83 106 118 148 146 179 121 89 104 101 69 173 225 279 22 319 38 316 357 10 40 145 50 52 45 55 55 66 82 91 99 109
154 157 153 152 151 136 121 109 87 94 92 98 102 133 123 109 112 95 110 134 132 120 290 218 163 197 216 276 81 58 339 322 345 87 135 116 50 49 66 75 85 91 92 92
156 151 144 141 142 151 129 97 99 76 83 152 321 177 165 180 146 138 129 95 131 117 19 65 244 252 163 57 72 29 347 349 347 18 337 101 67 59 76 84 74 77 90 96
156 151 147 146 150 147 141 107 105 124 60 72 48 312 237 191 162 161 182 193 188 156 189 254 266 267 219 90 107 179 58 50 55 92 83 106 102 84 85 89 87 89 92 93
152 152 147 153 161 157 96 105 111 146 104 48 11 349 91 194 183 198 198 198 211 213 231 242 249 276 179 120 143 153 134 70 352 126 127 94 152 117 100 108 101 89 89 83
155 150 146 149 148 126 105 95 121 130 79 74 79 278 357 178 172 152 186 156 185 227 236 257 239 265 179 108 130 140 139 121 108 115 127 113 107 122 125 139 118 108 102 105
150 150 139 129 145 129 139 141 157 236 80 119 161 143 233 168 133 154 168 178 90 206 201 239 189 327 85 173 153 152 168 200 173 135 119 132 123 127 145 159 139 115 111 110
154 145 135 116 144 147 152 158 55 52 60 145 227 259 275 166 165 178 161 194 215 193 229 190 106 91 98 113 125 133 157 183 175 156 139 152 141 141 145 149 143 123 118 127
151 145 92 116 138 120 129 120 142 172 226 211 227 215 200 200 119 206 206 187 243 241 268 149 171 159 128 134 125 135 146 141 133 158 157 169 157 147 143 144 145 145 137 140
151 133 127 130 154 151 167 193 195 189 231 196 190 207 199 205 190 139 215 240 160 253 154 120 164 103 134 140 138 141 144 141 138 140 143 146 148 145 153 149 147 134 122 121
137 109 145 152 166 195 160 195 262 214 229 172 163 94 161 178 191 109 141 256 230 335 81 164 133 136 149 150 156 153 159 168 158 145 143 143 143 131 117 124 122 124 127 123
171 147 153 202 209 246 190 185 190 124 138 138 137 100 113 84 62 237 267 257 274 281 184 200 167 155 161 166 168 168 160 165 162 156 151 143 135 133 128 126 119 120 124 126
153 214 231 208 201 132 140 127 125 96 86 137 104 71 100 12 112 189 255 291 269 4 97 190 158 169 172 170 171 176 171 166 153 143 142 134 129 127 125 121 117 114 109 103
280 265 115 73 168 140 158 184 168 154 168 110 86 147 152 218 186 181 224 273 262 231 156 154 164 167 173 175 181 176 158 148 139 136 132 127 123 118 110 105 105 103 90 75
280 219 213 134 147 136 182 204 191 176 185 185 163 206 213 169 63 230 110 224 223 146 148 164 176 179 181 181 171 160 155 151 145 137 132 128 121 113 95 93 102 111 83 75